PRAGL SBSJ-SBJD

Flight info

Callsign PRAGL
Flight time N/A
Altitude 14000
Route SBSJ/16 OMNI NEBAK SBJD/18
Aircraft BE9L/L-V/N

Departure

Time 2026-04-29 02:48
Airport Professor Urbano Ernesto Stumpf Airport (SBSJ)

Arrival

Time N/A
Airport Comte. Rolim Adolfo Amaro–Jundiaí State Airport (SBJD)
Time Latitude Longitude Altitude Speed Heading
2026-04-29 02:35 -23.23306 -45.85423 2124 ft 0 kts 315°
2026-04-29 02:43 -23.23312 -45.85475 2124 ft 7 kts 232°
2026-04-29 02:43 -23.23265 -45.85534 2124 ft 16 kts 315°
2026-04-29 02:44 -23.23145 -45.85664 2124 ft 27 kts 315°
2026-04-29 02:44 -23.23070 -45.85747 2124 ft 22 kts 315°
2026-04-29 02:44 -23.22962 -45.85863 2124 ft 23 kts 315°
2026-04-29 02:44 -23.22836 -45.86001 2124 ft 13 kts 315°
2026-04-29 02:45 -23.22738 -45.86107 2124 ft 28 kts 315°
2026-04-29 02:45 -23.22631 -45.86224 2124 ft 14 kts 315°
2026-04-29 02:45 -23.22513 -45.86351 2124 ft 25 kts 316°
2026-04-29 02:45 -23.22461 -45.86407 2124 ft 12 kts 313°
2026-04-29 02:46 -23.22378 -45.86496 2124 ft 13 kts 316°
2026-04-29 02:46 -23.22364 -45.86572 2124 ft 13 kts 228°
2026-04-29 02:46 -23.22414 -45.86622 2124 ft 0 kts 224°
2026-04-29 02:46 -23.22471 -45.86648 2124 ft 3 kts 159°
2026-04-29 02:47 -23.22476 -45.86644 2124 ft 0 kts 135°
2026-04-29 02:47 -23.22481 -45.86638 2124 ft 17 kts 136°
2026-04-29 02:47 -23.22861 -45.86235 2139 ft 120 kts 136°
2026-04-29 02:47 -23.23393 -45.85502 2702 ft 131 kts 119°
2026-04-29 02:48 -23.23459 -45.84538 3224 ft 143 kts 72°
2026-04-29 02:48 -23.23625 -45.83792 2223 ft 49 kts 158°
2026-04-29 02:48 -23.23719 -45.83736 2067 ft 15 kts 276°
2026-04-29 02:48 -23.23738 -45.83737 2060 ft 5 kts 32°
2026-04-29 02:49 -23.23739 -45.83739 2073 ft 9 kts 69°
2026-04-29 02:49 -23.23738 -45.83740 2076 ft 8 kts 76°
2026-04-29 02:49 -23.23306 -45.85423 2124 ft 0 kts 315°